Regional Weather Roundup
Issued by NWS Albany, NY

Home | Current Version | Previous Version | Graphics & Text | Print | Product List | Glossary Off
Versions: 1 2 3 4 5 6 7 8 9 10 11 12 13 14 15 16 17 18 19 20 21 22 23 24 25 26 27 28 29 30 31 32 33 34 35 36 37 38 39 40 41 42 43 44 45 46 47 48 49 50

000
ASUS41 KALY 202110
RWRALY

NEW YORK STATE HOURLY WEATHER ROUNDUP
NATIONAL WEATHER SERVICE ALBANY NY
400 PM EST SAT DEC 20 2014

NOTE: "FAIR" INDICATES FEW OR NO CLOUDS BELOW 12,000 FEET WITH NO
SIGNIFICANT WEATHER AND/OR NO OBSTRUCTIONS TO VISIBILITY.

NYZ032-033-038>043-046>054-057>066-NYZ062>081-202200-
EAST


CITY           SKY/WX    TMP DP  RH WIND       PRES   REMARKS
ALBANY         MOCLDY    30  17  58 N3        30.29S
GLENS FALLS    CLEAR     27  17  66 SE5       30.29R WCI  22
POUGHKEEPSIE   CLOUDY    30  19  63 N6        30.27R WCI  24
NEWBURGH       CLOUDY    28  21  74 VRB6      30.26  WCI  22
MONTGOMERY     CLOUDY    30  20  66 E5        30.25R WCI  25
WHITE PLAINS   CLOUDY    31  19  61 N3        30.24R
ISLIP          CLOUDY    33  22  63 N5        30.25R WCI  29
NEW YORK CITY  CLOUDY    33  21  61 NE6       30.27R WCI  28
CENTRAL PARK   CLOUDY    33  19  56 VRB3      30.28R
$$

NYZ005>009-017-018-044>046-055-056-202200-
CENTRAL


CITY           SKY/WX    TMP DP  RH WIND       PRES   REMARKS
FULTON         CLOUDY    29  21  72 CALM      30.25R
SYRACUSE       PTCLDY    27  20  75 NE5       30.26R WCI  22
ROME           CLOUDY    27  19  72 E5        30.28R WCI  22
ELMIRA         CLOUDY    30  21  69 CALM      30.23R
BINGHAMTON     CLOUDY    25  19  78 CALM      30.18R
MONTICELLO     CLOUDY    27  19  74 E3        30.21R
$$

NYZ026>034-041>043-202200-
NORTH


CITY           SKY/WX    TMP DP  RH WIND       PRES   REMARKS
WATERTOWN      CLEAR     29  16  58 E6        30.26F WCI  23
FORT DRUM      NOT AVBL
MASSENA        MOCLDY    21  13  71 NE7       30.32F WCI  12
SARANAC LAKE   CLEAR     23  20  88 CALM      30.17S
PLATTSBURGH    MOCLDY    22  16  78 NE6       30.32R WCI  14
$$

NYZ001>004-010>016-019>021-202200-
WEST


CITY           SKY/WX    TMP DP  RH WIND       PRES   REMARKS
NIAGARA FALLS  MOCLDY    31  22  69 N3        30.24R
BUFFALO        MOCLDY    30  22  72 SW8       30.24R WCI  22
DUNKIRK        CLOUDY    30  23  75 W5        30.25S WCI  25
JAMESTOWN      CLOUDY    25  18  74 NW7       30.20R WCI  17
WELLSVILLE     CLOUDY    25  18  74 CALM      30.17R
ROCHESTER      CLOUDY    31  22  69 SW6       30.25R WCI  25
PENN YAN       CLOUDY    29  20  69 CALM      30.23R
$$

             KEY
       WCI = WIND CHILL INDEX
       VSB = VISIBILITY
       HX  = HEAT INDEX
$$


USA.gov is the U.S. government's official web portal to all federal, state and local government web resources and services.